Gwinn, MI

12:24 PM EST on February 26, 2017 (GMT -0500)
Sawyer International

Weather History for KSAW - September, 2012

Change the Weather History Date:

Sunday, September 23, 2012

  Actual Average (KESC) Record (KESC)
Temperature  
Mean Temperature 40 °F -  
Max Temperature 48 °F 61 °F 78 °F (1987)
Min Temperature 33 °F 43 °F 33 °F (1950)
Degree Days  
Heating Degree Days 24    
Moisture  
Dew Point 33 °F    
Average Humidity 82    
Maximum Humidity 94    
Minimum Humidity 58    
Precipitation  
Precipitation 0.00 in - - ()
Sea Level Pressure  
Sea Level Pressure 30.08 in    
Wind  
Wind Speed 7 mph (WNW)    
Max Wind Speed 15 mph    
Max Gust Speed 23 mph    
Visibility 10 miles    
Events      
Averages and records for this station are not official NWS values.
T = Trace of Precipitation, MM = Missing Value Source: NWS Daily Summary

Daily Weather History Graph

Daily Weather History Graph

Search for Another Location

Airport or City:

Trip Planner

Search our weather history database for the weather conditions in past years. The results will help you decide how hot, cold, wet, or windy it might be!

Date:

Astronomy

Sep. 23, 2012 Rise Set
Actual Time 7:38 AM EDT 7:44 PM EDT
Civil Twilight 7:08 AM EDT 8:14 PM EDT
Nautical Twilight 6:33 AM EDT 8:49 PM EDT
Astronomical Twilight 5:56 AM EDT 9:25 PM EDT
Moon 4:03 PM EDT (9/23) 12:30 AM EDT (9/23)
Length of Visible Light 13h 05m
Length of Day
12h 05m
First Quarter, 60% of the Moon is Illuminated
Sep 23
First Quarter
Sep 29
Full
Oct 8
Last Quarter
Oct 15
New
Oct 21
First Quarter

Hourly Weather History & Observations

Time (EDT) Temp. Windchill Dew Point Humidity Pressure Visibility Wind Dir Wind Speed Gust Speed Precip Events Conditions
12:16 AM 36.1 °F 30.6 °F 32.9 °F 88% 30.03 in 10.0 mi WNW 6.9 mph - N/A   Clear
12:36 AM 36.0 °F 30.3 °F 32.9 °F 89% 30.04 in 10.0 mi NW 6.9 mph - N/A   Clear
12:56 AM 36.1 °F 29.3 °F 32.7 °F 87% 30.04 in 10.0 mi NW 9.2 mph - N/A   Clear
1:16 AM 35.8 °F 31.9 °F 32.5 °F 88% 30.04 in 10.0 mi WNW 4.6 mph - N/A   Scattered Clouds
1:35 AM 34.2 °F 30.0 °F 32.0 °F 92% 30.04 in 10.0 mi West 4.6 mph - N/A   Scattered Clouds
1:56 AM 34.5 °F 29.4 °F 32.0 °F 90% 30.05 in 10.0 mi West 5.8 mph - N/A   Mostly Cloudy
2:16 AM 34.0 °F 28.8 °F 32.0 °F 92% 30.06 in 10.0 mi West 5.8 mph - N/A   Clear
2:36 AM 33.8 °F 27.7 °F 32.0 °F 93% 30.05 in 10.0 mi West 6.9 mph - N/A   Clear
2:56 AM 34.0 °F 28.0 °F 32.0 °F 92% 30.06 in 10.0 mi WNW 6.9 mph - N/A   Clear
3:16 AM 34.0 °F 29.8 °F 32.0 °F 92% 30.05 in 10.0 mi West 4.6 mph - N/A   Clear
3:36 AM 33.8 °F 28.6 °F 32.0 °F 93% 30.06 in 10.0 mi WNW 5.8 mph - N/A   Clear
3:56 AM 33.3 °F 27.1 °F 31.6 °F 94% 30.06 in 10.0 mi West 6.9 mph - N/A   Clear
4:16 AM 33.8 °F 27.7 °F 32.0 °F 93% 30.06 in 10.0 mi WNW 6.9 mph - N/A   Clear
4:36 AM 34.2 °F 27.5 °F 32.0 °F 92% 30.06 in 10.0 mi West 8.1 mph - N/A   Clear
4:56 AM 34.7 °F 27.5 °F 32.4 °F 91% 30.06 in 10.0 mi West 9.2 mph - N/A   Clear
5:16 AM 34.9 °F 28.3 °F 32.4 °F 91% 30.06 in 10.0 mi WNW 8.1 mph - N/A   Clear
5:36 AM 34.7 °F 27.5 °F 32.2 °F 91% 30.07 in 10.0 mi West 9.2 mph - N/A   Clear
5:56 AM 34.2 °F 28.2 °F 32.0 °F 92% 30.07 in 10.0 mi West 6.9 mph - N/A   Clear
6:50 AM 33.8 °F 27.0 °F 32.0 °F 93% 30.08 in 10.0 mi West 8.1 mph - N/A   Clear
7:50 AM 33.8 °F 27.7 °F 32.0 °F 93% 30.08 in 10.0 mi West 6.9 mph - N/A   Clear
8:50 AM 37.4 °F 32.1 °F 33.8 °F 87% 30.09 in 10.0 mi West 6.9 mph - N/A   Clear
9:50 AM 41.0 °F 34.7 °F 35.6 °F 81% 30.11 in 10.0 mi NW 10.4 mph - N/A   Mostly Cloudy
10:50 AM 44.6 °F 39.2 °F 35.6 °F 71% 30.11 in 10.0 mi WNW 10.4 mph 20.7 mph N/A   Mostly Cloudy
11:50 AM 46.4 °F 40.7 °F 33.8 °F 62% 30.11 in 10.0 mi NW 12.7 mph 23.0 mph N/A   Mostly Cloudy
12:55 PM 48.2 °F - 35.6 °F 62% 30.12 in 10.0 mi NW 15.0 mph 23.0 mph N/A   Mostly Cloudy
2:50 PM 46.4 °F 44.3 °F 37.4 °F 71% 30.13 in 10.0 mi North 4.6 mph - N/A   Mostly Cloudy
3:50 PM 46.4 °F 43.5 °F 37.4 °F 71% 30.13 in 10.0 mi WNW 5.8 mph - N/A   Scattered Clouds
4:50 PM 48.2 °F - 33.8 °F 58% 30.12 in 10.0 mi NW 10.4 mph - N/A   Overcast
5:50 PM 48.2 °F - 33.8 °F 58% 30.12 in 10.0 mi WNW 9.2 mph - N/A   Overcast
6:50 PM 46.4 °F 40.4 °F 33.8 °F 62% 30.12 in 10.0 mi WNW 13.8 mph 20.7 mph N/A   Overcast
7:50 PM 44.6 °F 43.1 °F 33.8 °F 66% 30.13 in 10.0 mi WNW 3.5 mph - N/A   Scattered Clouds
8:50 PM 41.0 °F 38.0 °F 33.8 °F 76% 30.12 in 10.0 mi West 4.6 mph - N/A   Clear
9:50 PM 39.2 °F 37.0 °F 32.0 °F 75% 30.11 in 10.0 mi WSW 3.5 mph - N/A   Clear
10:16 PM 37.6 °F 35.1 °F 32.0 °F 80% 30.11 in 10.0 mi SW 3.5 mph - N/A   Clear
10:36 PM 37.2 °F - 31.6 °F 80% 30.11 in 10.0 mi Calm Calm - N/A   Clear
10:56 PM 37.4 °F 34.9 °F 31.3 °F 79% 30.10 in 10.0 mi South 3.5 mph - N/A   Clear
11:16 PM 36.5 °F - 31.6 °F 83% 30.10 in 10.0 mi Calm Calm - N/A   Clear
11:36 PM 35.2 °F 32.4 °F 31.6 °F 87% 30.09 in 10.0 mi South 3.5 mph - N/A   Clear